Flag for Marshall Islands Weather past 2 weeks in Majuro, Marshall Islands

Now
83 °F

Cloudy.


Feels Like: 92 °F
Forecast: 82 / 86 °F
Wind: 13 mph from Northeast

Location: Majuro Atoll

Current Time: Jan 31, 2015 at 5:50:47 PM

Latest Report: Jan 31, 2015 at 4:54 PM


Visibility: 15 mi

Pressure: 29.70 "Hg

Humidity: 83%

Dew point: 77 °F

Location of MajuroLocation

Historic Weather in Majuro — Graph

°F

Majuro temperature yesterday

Maximum temperature yesterday: 86 °F (at 1:51 PM)
Minimum temperature yesterday: 79 °F (at 7:51 AM)
Average temperature yesterday: 83 °F

Past Weeks' High & Low Weather Summary

 TemperatureHumidityPressure
High87 °F (Jan 26, 1:51 PM)94% (Jan 17, 4:54 PM)29.95 "Hg (Jan 17, 4:54 PM)
Low76 °F (Jan 28, 8:54 AM)62% (Jan 23, 11:50 AM)29.65 "Hg (Jan 27, 3:54 PM)
Average83 °F77%29.81 "Hg
* Reported Jan 16 3:51 PM — Jan 31 3:52 PM, Majuro, Weather by CustomWeather, © 2014

Note: Actual official high and low records may vary slightly from our data, if they occured in-between our weather recording intervals... More about our weather records

Advertising

Majuro weather history for previous 24 hours

 ConditionsComfort  
Time TempWeatherWind HumidityBarometerVisibility
3:52 PM
Jan 31
83 °FCloudy.10 mph80%29.68 "Hg15 mi
2:52 PM85 °FCloudy.13 mph77%29.70 "Hg15 mi
1:52 PM85 °FCloudy.14 mph78%29.72 "Hg15 mi
12:53 PM83 °FCloudy.12 mph84%29.75 "Hg15 mi
11:51 AM83 °FLight rain. Cloudy.12 mph87%29.77 "Hg14 mi
10:50 AM84 °FCloudy.15 mph78%29.79 "Hg15 mi
9:53 AM84 °FCloudy.12 mph79%29.80 "Hg15 mi
8:51 AM84 °FCloudy.9 mph81%29.78 "Hg15 mi
7:50 AM82 °FOvercast.10 mph84%29.77 "Hg15 mi
6:53 AM82 °FOvercast.14 mph82%29.74 "Hg15 mi
5:54 AM82 °FOvercast.14 mph81%29.72 "Hg15 mi
4:58 AM81 °FOvercast.9 mph84%29.72 "Hg15 mi
3:55 AM78 °FOvercast.12 mph86%29.72 "Hg15 mi
2:55 AM81 °FOvercast.8 mph83%29.72 "Hg15 mi
1:54 AM82 °FOvercast.9 mph80%29.73 "Hg15 mi
12:53 AM82 °FPartly cloudy.8 mph78%29.75 "Hg15 mi
11:50 PM
Jan 30
82 °FPartly cloudy.8 mph83%29.75 "Hg15 mi
10:51 PM82 °FPartly cloudy.9 mph81%29.76 "Hg15 mi
9:50 PM82 °FMostly cloudy.12 mph79%29.78 "Hg15 mi
8:51 PM82 °FMostly cloudy.14 mph78%29.77 "Hg15 mi
7:50 PM83 °FMostly cloudy.15 mph77%29.75 "Hg15 mi
6:52 PM83 °FCloudy.13 mph76%29.74 "Hg15 mi
5:51 PM83 °FCloudy.14 mph75%29.72 "Hg15 mi
Weather by CustomWeather, © 2014

See weather overviewHow to use our weather pages